SCP
0 0 0 0 0 0 0 0 0 0 0 0 0 0 0 0 0 0 0 0 0 0 0 0 0 0 0 0 0 0 0 0 0 0 0 0 0 0 0 0 0 0 0
0 0 0 0 0 0 0 0 0 0 0 0 0 0 0 0 0 0 0 0 0 0 0 0 0 0 0 0 0 0 0 0 0 0 0 0 0 0 0 0 0 0 0
0 0 0 0 0 0 0 0 0 0 0 0 0 0 0 0 0 0 0 0 0 0 0 0 0 0 0 0 0 0 0 0 0 0 0 0 0 0 0 0 0 0 0
0 0 0 0 0 0 0 0 0 0 0 0 0 0 0 0 0 0 0 0 0 0 0 0 0 0 0 0 0 0 0 0 0 0 0 0 0 0 0 0 0 0 0
0 0 0 0 0 0 0 0 0 0 0 0 0 0 0 0 0 0 0 0 0 0 0 0 0 0 0 0 0 0 0 0 0 0 0 0 0 0 0 0 0 0 0
1 0 0 0 0 0 0 0 0 0 0 0 0 0 0 0 0 0 0 0 0 0 0 0 0 0 0 0 0 0 0 0 0 0 0 0 0 0 0 0 0 0 0
0 1 0 0 0 0 0 0 0 0 0 0 0 0 0 0 0 0 0 0 0 0 0 0 0 0 0 0 0 0 0 0 0 0 0 0 0 0 0 0 0 0 0
1 1 0 0 0 0 0 0 0 0 0 0 0 0 0 0 0 0 0 0 0 0 0 0 0 0 0 0 0 0 0 0 0 0 0 0 0 0 0 0 0 0 0
1 0 0 0 0 0 0 0 0 0 0 0 0 0 0 0 0 0 0 0 0 0 0 0 0 0 0 0 0 0 0 0 0 0 0 0 0 0 0 0 0 0 0
0 0 0 0 0 0 0 0 0 0 0 0 0 0 0 0 0 0 0 0 0 0 0 0 0 0 0 0 0 0 0 0 0 0 0 0 0 0 0 0 0 0 0
0 0 0 0 0 0 0 0 0 0 0 0 0 0 0 0 0 0 0 0 0 0 0 0 0 0 0 0 0 0 0 0 0 0 0 0 0 0 0 0 0 0 0
0 0 0 0 0 0 0 0 0 0 0 0 0 0 0 0 0 0 0 0 0 0 0 0 0 0 0 0 0 0 0 0 0 0 0 0 0 0 0 0 0 0 0
0 0 0 0 0 0 0 0 0 0 0 0 0 0 0 0 0 0 0 0 0 0 0 0 0 0 0 0 0 0 0 0 0 0 0 0 0 0 0 0 0 0 0
0 0 0 0 0 0 0 0 0 0 0 0 0 0 0 0 0 0 0 0 0 0 0 0 0 0 0 0 0 0 0 0 0 0 0 0 0 0 0 0 0 0 0
0 0 0 0 0 0 0 0 0 0 0 0 0 0 0 0 0 0 0 0 0 0 0 0 0 0 0 0 0 0 0 0 0 0 0 0 0 0 0 0 0 0 0
0 0 0 0 0 0 0 0 0 0 0 0 0 0 0 0 -0 0 0 0 0 0 0 0 0 0 0 0 0 0 0 0 0 0 0 0 -0 0 0 0 -0 0 0
0 0 0 0 0 0 0 0 0 0 0 0 0 0 0 0 0 0 0 0 0 0 0 0 0 0 0 0 0 0 0 0 0 0 0 0 0 0 0 0 0 0 0
0 0 0 0 0 -0 -0 -0 0 0 0 0 0 0 0 0 0 0 0 0 0 0 0 0 0 0 0 0 0 0 0 0 0 0 0 0 0 0 0 0 0 0 0
0 0 0 0 0 0 0 0 0 0 0 -0 0 0 0 0 0 0 0 0 0 0 0 0 0 0 0 0 0 0 0 0 0 0 0 0 0 0 0 0 0 0 0
0 0 0 0 0 0 0 -0 0 0 0 -0 0 0 0 0 0 0 0 0 0 0 0 0 0 0 0 0 0 0 0 0 0 0 0 0 0 0 0 0 0 0 0
0 0 0 -0 -0 0 -0 0 0 0 0 0 0 0 0 0 0 0 0 0 0 0 0 0 0 0 0 0 0 0 0 0 0 0 0 0 0 0 0 0 0 0 0
-0 -0 -0 -0 -0 0 0 0 -0 0 0 0 0 0 0 0 0 0 0 0 0 0 0 0 0 0 0 0 0 0 0 0 0 0 0 0 0 0 0 0 0 0 0
0 0 -0 -0 -0 0 0 0 0 0 0 0 0 0 0 0 0 0 0 0 0 0 0 0 0 0 0 0 0 0 0 0 0 0 0 0 0 0 0 0 0 0 0
-0 0 0 0 0 0 -0 -0 0 0 0 0 0 0 0 0 0 0 0 0 0 0 0 0 0 0 0 0 0 0 0 0 0 0 0 0 0 0 0 0 0 0 0
0 0 0 0 0 -0 -0 0 0 0 0 0 0 0 0 0 0 0 0 0 0 0 0 0 0 0 0 0 0 0 0 0 0 0 0 0 0 0 0 0 0 0 0
0 0 0 0 0 0 0 0 0 0 0 0 0 0 0 0 0 0 0 0 0 0 0 0 0 0 0 0 0 0 0 0 0 0 0 0 0 0 0 0 0 0 0
Wind_Speed_500mb
46 44 42 37 35 35 34 36 34 31 25 22 17 16 15 15 15 23 22 24 24 25 25 16 20 19 21 17 13 7 9 10 6 12 5 3 8 8 7 6 7 7 14
53 50 47 44 39 38 39 34 31 38 32 21 24 22 22 15 22 23 22 25 24 21 25 18 15 12 4 7 5 5 9 9 10 4 7 14 8 7 1 7 11 18 13
57 54 52 47 41 38 37 35 33 33 29 27 35 35 26 18 12 14 15 21 18 16 15 17 10 12 10 7 6 11 14 12 15 12 6 5 1 7 4 9 13 23 16
58 54 52 47 43 38 34 31 32 31 29 34 20 21 15 13 15 10 11 10 13 14 12 11 9 8 5 7 6 10 17 20 15 13 15 9 6 4 8 1 14 21 18
63 58 52 45 40 36 33 31 31 30 28 25 25 23 19 22 14 12 12 12 10 10 8 8 8 10 9 12 12 13 15 16 17 10 10 11 6 14 3 5 18 16 13
64 57 49 41 38 34 32 30 30 29 25 23 24 21 25 19 18 15 12 12 9 9 10 9 12 13 13 12 12 16 15 17 15 14 14 10 4 9 9 13 17 22 20
70 60 51 43 39 35 31 29 30 28 25 24 22 22 22 20 19 17 14 15 11 8 8 12 13 9 13 13 14 16 16 16 16 18 11 10 9 11 12 14 19 25 18
57 55 47 42 37 36 31 28 29 28 27 25 24 22 21 15 14 15 15 13 12 8 10 12 13 14 13 12 15 12 13 15 14 17 18 9 10 11 13 15 22 25 20
50 50 45 40 38 36 32 29 28 28 26 25 23 22 20 18 21 16 16 17 15 10 11 11 12 13 13 13 14 10 12 13 12 13 13 11 11 13 13 14 16 20 28
43 48 46 41 38 34 30 28 27 27 25 23 21 19 18 16 14 15 19 18 18 14 10 9 9 9 12 12 14 9 11 12 10 7 13 12 12 13 15 15 16 18 23
40 43 46 42 37 34 31 29 28 27 25 23 20 19 15 15 13 15 15 16 17 15 12 8 5 8 9 10 10 11 10 11 10 11 11 15 17 15 14 17 17 19 23
40 42 42 44 40 36 32 30 28 28 30 31 26 18 15 12 11 13 17 18 17 14 14 12 11 7 8 10 8 11 8 8 9 10 12 13 13 19 19 21 24 24 29
48 49 44 41 41 40 42 40 36 30 23 16 9 7 6 3 3 8 16 17 13 13 12 12 10 11 9 5 5 6 6 5 5 9 11 13 17 19 20 24 25 27 32
49 51 48 43 37 41 41 36 27 19 19 21 19 13 14 14 8 7 14 9 12 13 10 10 11 9 5 7 5 1 3 7 9 12 14 14 15 21 26 25 26 29 38
54 50 48 42 36 35 34 20 14 15 15 12 11 5 2 6 15 8 15 15 19 20 18 14 12 11 13 9 6 7 8 11 14 18 18 19 28 33 34 44 31 35 39
50 43 37 36 32 28 21 15 20 18 11 12 15 10 14 9 4 11 12 13 18 14 15 18 15 14 10 24 23 16 16 17 20 20 25 27 30 22 37 40 44 53 48
42 40 37 34 30 17 26 21 15 14 17 14 11 11 11 26 18 16 15 16 19 18 18 18 18 18 19 30 24 21 25 30 25 28 31 31 30 39 32 34 42 46 48
41 37 34 25 23 24 24 21 17 18 15 15 14 16 16 14 15 16 18 20 21 22 22 22 20 22 23 30 35 31 32 33 31 33 33 39 39 39 46 46 50 53 51
40 35 29 20 16 19 18 15 14 13 12 14 15 15 16 16 16 17 18 20 22 22 24 22 24 25 27 32 39 39 32 33 37 39 42 43 44 47 52 57 53 61 61
29 26 26 15 17 17 18 12 15 11 14 14 12 12 15 16 17 18 20 21 23 25 23 26 28 31 34 34 40 40 33 37 40 39 40 40 44 46 51 64 69 69 62
19 7 11 20 13 14 13 11 10 13 13 12 12 13 14 15 17 20 24 27 27 27 31 33 34 36 36 33 36 40 42 41 39 37 39 37 49 54 62 72 69 48 59
20 16 16 16 13 13 10 10 13 16 15 14 13 12 13 16 19 24 25 27 30 32 35 38 40 37 34 35 44 38 49 43 40 38 39 38 51 63 65 53 47 55 59
16 13 11 11 12 12 12 13 14 15 15 15 15 17 21 23 26 29 31 34 36 39 43 45 47 48 46 41 45 48 41 32 39 32 36 43 51 60 54 48 54 52 48
13 13 14 13 14 15 14 16 18 18 18 19 21 22 28 31 35 33 33 35 39 44 40 43 47 37 27 28 33 29 17 20 28 32 33 49 57 44 47 44 45 45 48
11 11 11 11 12 12 12 15 19 21 23 25 29 30 32 38 37 35 33 34 39 43 48 49 45 40 27 28 30 24 22 28 33 51 46 40 36 39 41 43 45 46 46
11 11 10 11 13 15 19 22 25 28 33 32 31 37 37 37 27 29 26 24 29 18 21 22 20 13 16 22 19 21 30 38 41 41 35 31 38 41 43 45 46 45 46
Wind_Direction_500mb
197 197 193 193 195 194 198 213 201 216 209 212 202 195 191 196 223 245 246 247 251 256 251 268 270 263 259 266 265 239 336 338 352 29 234 222 110 122 83 36 15 17 18
198 197 194 192 198 204 201 199 200 215 206 199 190 199 199 194 224 240 248 253 257 256 251 248 246 199 257 223 202 176 115 13 14 5 244 201 180 69 340 77 25 23 22
197 197 197 198 196 197 196 195 199 220 196 199 202 203 217 234 231 243 244 253 255 255 248 233 215 184 169 178 164 115 143 57 22 39 112 254 65 22 51 40 16 13 19
204 202 200 198 197 200 197 194 193 197 192 201 199 195 195 207 192 168 207 233 242 238 225 207 203 195 154 151 137 121 97 99 62 24 38 81 79 37 184 142 354 16 6
205 203 200 198 199 197 193 187 184 189 198 187 190 199 185 197 177 172 165 191 186 172 165 159 153 143 106 113 109 112 108 97 75 62 45 37 29 17 0 301 334 348 7
201 199 196 195 194 192 185 177 171 173 175 175 179 169 185 167 177 164 144 135 126 119 127 126 134 126 99 105 103 96 95 88 102 69 63 52 44 2 1 337 339 338 338
191 185 183 188 187 186 182 174 168 163 161 156 158 158 159 161 166 152 161 154 148 132 130 126 106 104 120 113 96 90 87 91 89 106 61 39 26 17 357 348 339 337 341
171 173 181 183 184 182 176 168 158 152 148 146 145 147 145 148 161 155 167 158 166 140 116 120 127 124 111 104 90 78 72 78 56 72 103 41 17 15 8 4 351 344 338
158 167 172 178 178 176 173 167 158 151 146 143 140 137 144 144 166 149 135 146 140 117 109 114 114 110 107 105 73 87 82 77 71 28 63 55 11 13 1 357 353 341 330
158 162 166 168 168 169 166 161 154 148 142 136 129 127 126 126 128 133 139 141 142 133 106 105 106 113 106 103 106 64 79 86 82 50 38 50 24 3 358 349 341 336 319
159 160 157 157 157 160 163 155 150 144 137 132 131 125 128 124 132 134 133 139 138 131 117 100 92 98 101 98 112 100 89 80 59 49 33 15 8 2 351 343 335 321 311
156 155 154 151 152 157 154 149 146 139 136 141 134 129 112 105 106 144 154 152 148 150 144 146 148 140 127 121 121 120 100 84 64 33 26 7 358 0 352 332 327 325 315
152 151 153 148 146 145 150 152 152 152 155 157 155 145 90 22 162 170 156 155 167 152 149 163 164 160 156 145 141 124 97 61 11 8 355 352 351 346 322 328 326 321 315
149 149 147 142 135 150 154 161 164 169 161 148 150 185 188 192 194 184 156 150 169 177 180 174 187 185 186 193 185 288 354 357 333 326 330 322 314 315 320 331 327 320 315
148 147 144 144 140 141 152 169 188 177 134 116 151 182 213 193 241 202 175 162 197 197 192 198 204 209 225 252 243 289 314 306 306 301 304 308 296 336 321 330 316 316 313
130 138 133 137 149 164 177 167 136 136 156 219 201 192 215 206 176 243 217 217 220 213 225 231 223 234 244 260 274 295 308 296 288 294 296 302 313 306 317 319 315 316 311
137 138 149 155 158 168 147 160 153 168 189 178 212 159 218 236 230 234 230 215 237 233 232 242 249 251 256 263 273 296 303 305 289 287 288 293 295 297 304 296 299 311 306
138 148 154 156 160 159 182 175 175 183 186 190 206 199 216 221 233 231 237 241 241 240 241 248 256 259 264 271 284 293 294 292 285 282 284 291 292 292 291 296 300 310 308
134 138 140 143 159 170 167 175 190 192 201 196 204 207 213 213 222 232 241 243 244 246 249 254 258 262 265 270 280 285 284 286 288 287 284 287 288 295 293 296 301 305 305
128 149 153 141 144 167 180 201 201 188 201 197 211 218 219 222 232 241 245 243 240 244 248 256 259 261 264 266 272 279 283 286 289 286 288 297 289 286 295 301 306 304 304
147 91 168 169 176 173 181 217 220 206 204 206 212 214 221 233 243 248 248 247 247 246 251 254 257 261 265 272 268 272 286 282 283 280 288 289 292 295 299 301 306 303 316
162 164 164 177 198 187 201 212 211 205 208 218 207 213 226 235 244 253 256 258 261 264 266 267 268 271 275 272 277 269 290 289 269 280 285 284 283 286 300 310 313 313 314
184 197 210 206 196 202 207 215 204 199 199 207 221 235 241 251 260 264 269 275 279 283 285 281 280 273 276 272 276 285 291 282 284 285 287 292 298 308 309 309 308 310 302
198 196 194 199 208 221 215 206 202 211 221 235 248 259 269 276 273 277 275 276 280 282 284 281 279 287 281 291 292 292 274 307 302 300 292 294 302 309 309 306 307 306 304
174 180 183 190 199 204 212 220 226 232 243 253 260 267 275 277 279 277 275 281 283 282 289 290 291 279 292 287 285 257 250 274 279 291 303 306 306 305 306 306 306 307 308
189 192 199 212 220 223 233 235 239 242 253 261 271 272 276 280 281 279 289 284 287 294 311 303 298 277 294 290 293 286 281 287 300 304 305 306 307 308 309 310 310 310 311
Wind_Speed_850mb
46 44 42 37 35 35 34 36 34 31 25 22 17 16 15 15 15 23 22 24 24 25 25 16 20 19 21 17 13 7 9 10 6 12 5 3 8 8 7 6 7 7 14
53 50 47 44 39 38 39 34 31 38 32 21 24 22 22 15 22 23 22 25 24 21 25 18 15 12 4 7 5 5 9 9 10 4 7 14 8 7 1 7 11 18 13
57 54 52 47 41 38 37 35 33 33 29 27 35 35 26 18 12 14 15 21 18 16 15 17 10 12 10 7 6 11 14 12 15 12 6 5 1 7 4 9 13 23 16
58 54 52 47 43 38 34 31 32 31 29 34 20 21 15 13 15 10 11 10 13 14 12 11 9 8 5 7 6 10 17 20 15 13 15 9 6 4 8 1 14 21 18
63 58 52 45 40 36 33 31 31 30 28 25 25 23 19 22 14 12 12 12 10 10 8 8 8 10 9 12 12 13 15 16 17 10 10 11 6 14 3 5 18 16 13
64 57 49 41 38 34 32 30 30 29 25 23 24 21 25 19 18 15 12 12 9 9 10 9 12 13 13 12 12 16 15 17 15 14 14 10 4 9 9 13 17 22 20
70 60 51 43 39 35 31 29 30 28 25 24 22 22 22 20 19 17 14 15 11 8 8 12 13 9 13 13 14 16 16 16 16 18 11 10 9 11 12 14 19 25 18
57 55 47 42 37 36 31 28 29 28 27 25 24 22 21 15 14 15 15 13 12 8 10 12 13 14 13 12 15 12 13 15 14 17 18 9 10 11 13 15 22 25 20
50 50 45 40 38 36 32 29 28 28 26 25 23 22 20 18 21 16 16 17 15 10 11 11 12 13 13 13 14 10 12 13 12 13 13 11 11 13 13 14 16 20 28
43 48 46 41 38 34 30 28 27 27 25 23 21 19 18 16 14 15 19 18 18 14 10 9 9 9 12 12 14 9 11 12 10 7 13 12 12 13 15 15 16 18 23
40 43 46 42 37 34 31 29 28 27 25 23 20 19 15 15 13 15 15 16 17 15 12 8 5 8 9 10 10 11 10 11 10 11 11 15 17 15 14 17 17 19 23
40 42 42 44 40 36 32 30 28 28 30 31 26 18 15 12 11 13 17 18 17 14 14 12 11 7 8 10 8 11 8 8 9 10 12 13 13 19 19 21 24 24 29
48 49 44 41 41 40 42 40 36 30 23 16 9 7 6 3 3 8 16 17 13 13 12 12 10 11 9 5 5 6 6 5 5 9 11 13 17 19 20 24 25 27 32
49 51 48 43 37 41 41 36 27 19 19 21 19 13 14 14 8 7 14 9 12 13 10 10 11 9 5 7 5 1 3 7 9 12 14 14 15 21 26 25 26 29 38
54 50 48 42 36 35 34 20 14 15 15 12 11 5 2 6 15 8 15 15 19 20 18 14 12 11 13 9 6 7 8 11 14 18 18 19 28 33 34 44 31 35 39
50 43 37 36 32 28 21 15 20 18 11 12 15 10 14 9 4 11 12 13 18 14 15 18 15 14 10 24 23 16 16 17 20 20 25 27 30 22 37 40 44 53 48
42 40 37 34 30 17 26 21 15 14 17 14 11 11 11 26 18 16 15 16 19 18 18 18 18 18 19 30 24 21 25 30 25 28 31 31 30 39 32 34 42 46 48
41 37 34 25 23 24 24 21 17 18 15 15 14 16 16 14 15 16 18 20 21 22 22 22 20 22 23 30 35 31 32 33 31 33 33 39 39 39 46 46 50 53 51
40 35 29 20 16 19 18 15 14 13 12 14 15 15 16 16 16 17 18 20 22 22 24 22 24 25 27 32 39 39 32 33 37 39 42 43 44 47 52 57 53 61 61
29 26 26 15 17 17 18 12 15 11 14 14 12 12 15 16 17 18 20 21 23 25 23 26 28 31 34 34 40 40 33 37 40 39 40 40 44 46 51 64 69 69 62
19 7 11 20 13 14 13 11 10 13 13 12 12 13 14 15 17 20 24 27 27 27 31 33 34 36 36 33 36 40 42 41 39 37 39 37 49 54 62 72 69 48 59
20 16 16 16 13 13 10 10 13 16 15 14 13 12 13 16 19 24 25 27 30 32 35 38 40 37 34 35 44 38 49 43 40 38 39 38 51 63 65 53 47 55 59
16 13 11 11 12 12 12 13 14 15 15 15 15 17 21 23 26 29 31 34 36 39 43 45 47 48 46 41 45 48 41 32 39 32 36 43 51 60 54 48 54 52 48
13 13 14 13 14 15 14 16 18 18 18 19 21 22 28 31 35 33 33 35 39 44 40 43 47 37 27 28 33 29 17 20 28 32 33 49 57 44 47 44 45 45 48
11 11 11 11 12 12 12 15 19 21 23 25 29 30 32 38 37 35 33 34 39 43 48 49 45 40 27 28 30 24 22 28 33 51 46 40 36 39 41 43 45 46 46
11 11 10 11 13 15 19 22 25 28 33 32 31 37 37 37 27 29 26 24 29 18 21 22 20 13 16 22 19 21 30 38 41 41 35 31 38 41 43 45 46 45 46
Wind_Direction_850mb
197 197 193 193 195 194 198 213 201 216 209 212 202 195 191 196 223 245 246 247 251 256 251 268 270 263 259 266 265 239 336 338 352 29 234 222 110 122 83 36 15 17 18
198 197 194 192 198 204 201 199 200 215 206 199 190 199 199 194 224 240 248 253 257 256 251 248 246 199 257 223 202 176 115 13 14 5 244 201 180 69 340 77 25 23 22
197 197 197 198 196 197 196 195 199 220 196 199 202 203 217 234 231 243 244 253 255 255 248 233 215 184 169 178 164 115 143 57 22 39 112 254 65 22 51 40 16 13 19
204 202 200 198 197 200 197 194 193 197 192 201 199 195 195 207 192 168 207 233 242 238 225 207 203 195 154 151 137 121 97 99 62 24 38 81 79 37 184 142 354 16 6
205 203 200 198 199 197 193 187 184 189 198 187 190 199 185 197 177 172 165 191 186 172 165 159 153 143 106 113 109 112 108 97 75 62 45 37 29 17 0 301 334 348 7
201 199 196 195 194 192 185 177 171 173 175 175 179 169 185 167 177 164 144 135 126 119 127 126 134 126 99 105 103 96 95 88 102 69 63 52 44 2 1 337 339 338 338
191 185 183 188 187 186 182 174 168 163 161 156 158 158 159 161 166 152 161 154 148 132 130 126 106 104 120 113 96 90 87 91 89 106 61 39 26 17 357 348 339 337 341
171 173 181 183 184 182 176 168 158 152 148 146 145 147 145 148 161 155 167 158 166 140 116 120 127 124 111 104 90 78 72 78 56 72 103 41 17 15 8 4 351 344 338
158 167 172 178 178 176 173 167 158 151 146 143 140 137 144 144 166 149 135 146 140 117 109 114 114 110 107 105 73 87 82 77 71 28 63 55 11 13 1 357 353 341 330
158 162 166 168 168 169 166 161 154 148 142 136 129 127 126 126 128 133 139 141 142 133 106 105 106 113 106 103 106 64 79 86 82 50 38 50 24 3 358 349 341 336 319
159 160 157 157 157 160 163 155 150 144 137 132 131 125 128 124 132 134 133 139 138 131 117 100 92 98 101 98 112 100 89 80 59 49 33 15 8 2 351 343 335 321 311
156 155 154 151 152 157 154 149 146 139 136 141 134 129 112 105 106 144 154 152 148 150 144 146 148 140 127 121 121 120 100 84 64 33 26 7 358 0 352 332 327 325 315
152 151 153 148 146 145 150 152 152 152 155 157 155 145 90 22 162 170 156 155 167 152 149 163 164 160 156 145 141 124 97 61 11 8 355 352 351 346 322 328 326 321 315
149 149 147 142 135 150 154 161 164 169 161 148 150 185 188 192 194 184 156 150 169 177 180 174 187 185 186 193 185 288 354 357 333 326 330 322 314 315 320 331 327 320 315
148 147 144 144 140 141 152 169 188 177 134 116 151 182 213 193 241 202 175 162 197 197 192 198 204 209 225 252 243 289 314 306 306 301 304 308 296 336 321 330 316 316 313
130 138 133 137 149 164 177 167 136 136 156 219 201 192 215 206 176 243 217 217 220 213 225 231 223 234 244 260 274 295 308 296 288 294 296 302 313 306 317 319 315 316 311
137 138 149 155 158 168 147 160 153 168 189 178 212 159 218 236 230 234 230 215 237 233 232 242 249 251 256 263 273 296 303 305 289 287 288 293 295 297 304 296 299 311 306
138 148 154 156 160 159 182 175 175 183 186 190 206 199 216 221 233 231 237 241 241 240 241 248 256 259 264 271 284 293 294 292 285 282 284 291 292 292 291 296 300 310 308
134 138 140 143 159 170 167 175 190 192 201 196 204 207 213 213 222 232 241 243 244 246 249 254 258 262 265 270 280 285 284 286 288 287 284 287 288 295 293 296 301 305 305
128 149 153 141 144 167 180 201 201 188 201 197 211 218 219 222 232 241 245 243 240 244 248 256 259 261 264 266 272 279 283 286 289 286 288 297 289 286 295 301 306 304 304
147 91 168 169 176 173 181 217 220 206 204 206 212 214 221 233 243 248 248 247 247 246 251 254 257 261 265 272 268 272 286 282 283 280 288 289 292 295 299 301 306 303 316
162 164 164 177 198 187 201 212 211 205 208 218 207 213 226 235 244 253 256 258 261 264 266 267 268 271 275 272 277 269 290 289 269 280 285 284 283 286 300 310 313 313 314
184 197 210 206 196 202 207 215 204 199 199 207 221 235 241 251 260 264 269 275 279 283 285 281 280 273 276 272 276 285 291 282 284 285 287 292 298 308 309 309 308 310 302
198 196 194 199 208 221 215 206 202 211 221 235 248 259 269 276 273 277 275 276 280 282 284 281 279 287 281 291 292 292 274 307 302 300 292 294 302 309 309 306 307 306 304
174 180 183 190 199 204 212 220 226 232 243 253 260 267 275 277 279 277 275 281 283 282 289 290 291 279 292 287 285 257 250 274 279 291 303 306 306 305 306 306 306 307 308
189 192 199 212 220 223 233 235 239 242 253 261 271 272 276 280 281 279 289 284 287 294 311 303 298 277 294 290 293 286 281 287 300 304 305 306 307 308 309 310 310 310 311